owner,sensor,date,latitude,longitude,air_pressure(mBar),qcFlag 
DISL,ioos:station:DISL:MBLA:1,2015-12-04T03:30:00Z,30.4367,-88.0117,1025.0,1111122 
DISL,ioos:station:DISL:MBLA:1,2015-12-04T04:00:00Z,30.4367,-88.0117,1026.0,1111122 
DISL,ioos:station:DISL:MBLA:1,2015-12-04T04:30:00Z,30.4367,-88.0117,1026.0,1111122 
DISL,ioos:station:DISL:MBLA:1,2015-12-04T05:00:00Z,30.4367,-88.0117,1025.0,1111122 
DISL,ioos:station:DISL:MBLA:1,2015-12-04T05:30:00Z,30.4367,-88.0117,1026.0,1111122 
DISL,ioos:station:DISL:MBLA:1,2015-12-04T06:00:00Z,30.4367,-88.0117,1026.0,1111122 
DISL,ioos:station:DISL:MBLA:1,2015-12-04T06:30:00Z,30.4367,-88.0117,1025.0,1111122 
DISL,ioos:station:DISL:MBLA:1,2015-12-04T07:00:00Z,30.4367,-88.0117,1025.0,1111122 
DISL,ioos:station:DISL:MBLA:1,2015-12-04T07:30:00Z,30.4367,-88.0117,1026.0,1111122 
DISL,ioos:station:DISL:MBLA:1,2015-12-04T08:00:00Z,30.4367,-88.0117,1026.0,1111122 
DISL,ioos:station:DISL:MBLA:1,2015-12-04T08:30:00Z,30.4367,-88.0117,1026.0,1111122 
DISL,ioos:station:DISL:MBLA:1,2015-12-04T09:00:00Z,30.4367,-88.0117,1025.0,1111122 
DISL,ioos:station:DISL:MBLA:1,2015-12-04T09:30:00Z,30.4367,-88.0117,1025.0,1111122 
DISL,ioos:station:DISL:MBLA:1,2015-12-04T10:00:00Z,30.4367,-88.0117,1026.0,1111122 
DISL,ioos:station:DISL:MBLA:1,2015-12-04T10:30:00Z,30.4367,-88.0117,1026.0,1111122 
DISL,ioos:station:DISL:MBLA:1,2015-12-04T11:00:00Z,30.4367,-88.0117,1026.0,1111122 
DISL,ioos:station:DISL:MBLA:1,2015-12-04T11:30:00Z,30.4367,-88.0117,1026.0,1111122 
DISL,ioos:station:DISL:MBLA:1,2015-12-04T12:00:00Z,30.4367,-88.0117,1026.0,1111122 
DISL,ioos:station:DISL:MBLA:1,2015-12-04T12:30:00Z,30.4367,-88.0117,1027.0,1111122 
DISL,ioos:station:DISL:MBLA:1,2015-12-04T13:00:00Z,30.4367,-88.0117,1027.0,1111122 
DISL,ioos:station:DISL:MBLA:1,2015-12-04T13:30:00Z,30.4367,-88.0117,1027.0,1111122 
DISL,ioos:station:DISL:MBLA:1,2015-12-04T14:00:00Z,30.4367,-88.0117,1028.0,1111122 
DISL,ioos:station:DISL:MBLA:1,2015-12-04T14:30:00Z,30.4367,-88.0117,1029.0,1111122 
DISL,ioos:station:DISL:MBLA:1,2015-12-04T15:00:00Z,30.4367,-88.0117,1028.0,1111122 
DISL,ioos:station:DISL:MBLA:1,2015-12-04T15:30:00Z,30.4367,-88.0117,1029.0,1111122 
DISL,ioos:station:DISL:MBLA:1,2015-12-04T16:00:00Z,30.4367,-88.0117,1029.0,1111122 
DISL,ioos:station:DISL:MBLA:1,2015-12-04T16:30:00Z,30.4367,-88.0117,1028.0,1111122 
DISL,ioos:station:DISL:MBLA:1,2015-12-04T17:00:00Z,30.4367,-88.0117,1028.0,1111122 
DISL,ioos:station:DISL:MBLA:1,2015-12-04T17:30:00Z,30.4367,-88.0117,1028.0,1111122 
DISL,ioos:station:DISL:MBLA:1,2015-12-04T18:00:00Z,30.4367,-88.0117,1027.0,1111122 
DISL,ioos:station:DISL:MBLA:1,2015-12-04T18:30:00Z,30.4367,-88.0117,1027.0,1111122 
DISL,ioos:station:DISL:MBLA:1,2015-12-04T19:00:00Z,30.4367,-88.0117,1027.0,1111122 
DISL,ioos:station:DISL:MBLA:1,2015-12-04T19:30:00Z,30.4367,-88.0117,1026.0,1111122 
DISL,ioos:station:DISL:MBLA:1,2015-12-04T20:00:00Z,30.4367,-88.0117,1027.0,1111122 
DISL,ioos:station:DISL:MBLA:1,2015-12-04T20:30:00Z,30.4367,-88.0117,1027.0,1111122 
DISL,ioos:station:DISL:MBLA:1,2015-12-04T21:00:00Z,30.4367,-88.0117,1026.0,1111122 
DISL,ioos:station:DISL:MBLA:1,2015-12-04T21:30:00Z,30.4367,-88.0117,1027.0,1111122 
DISL,ioos:station:DISL:MBLA:1,2015-12-04T22:00:00Z,30.4367,-88.0117,1027.0,1111122 
DISL,ioos:station:DISL:MBLA:1,2015-12-04T22:30:00Z,30.4367,-88.0117,1027.0,1111122 
DISL,ioos:station:DISL:MBLA:1,2015-12-04T23:00:00Z,30.4367,-88.0117,1028.0,1111122 
DISL,ioos:station:DISL:MBLA:1,2015-12-04T23:30:00Z,30.4367,-88.0117,1028.0,1111122 
DISL,ioos:station:DISL:MBLA:1,2015-12-05T00:00:00Z,30.4367,-88.0117,1028.0,1111122 
DISL,ioos:station:DISL:MBLA:1,2015-12-05T00:30:00Z,30.4367,-88.0117,1028.0,1111122 
DISL,ioos:station:DISL:MBLA:1,2015-12-05T01:00:00Z,30.4367,-88.0117,1029.0,1111122 
DISL,ioos:station:DISL:MBLA:1,2015-12-05T01:30:00Z,30.4367,-88.0117,1029.0,1111122 
DISL,ioos:station:DISL:MBLA:1,2015-12-05T02:00:00Z,30.4367,-88.0117,1029.0,1111122 
DISL,ioos:station:DISL:MBLA:1,2015-12-05T02:30:00Z,30.4367,-88.0117,1030.0,1111122 
DISL,ioos:station:DISL:MBLA:1,2015-12-05T03:00:00Z,30.4367,-88.0117,1029.0,1111122 
DISL,ioos:station:DISL:MBLA:1,2015-12-05T03:30:00Z,30.4367,-88.0117,1029.0,1111122 
DISL,ioos:station:DISL:MBLA:1,2015-12-05T04:00:00Z,30.4367,-88.0117,1030.0,1111122 
DISL,ioos:station:DISL:MBLA:1,2015-12-05T04:30:00Z,30.4367,-88.0117,1030.0,1111122 
DISL,ioos:station:DISL:MBLA:1,2015-12-05T05:00:00Z,30.4367,-88.0117,1029.0,1111122 
DISL,ioos:station:DISL:MBLA:1,2015-12-05T05:30:00Z,30.4367,-88.0117,1030.0,1111122 
DISL,ioos:station:DISL:MBLA:1,2015-12-05T06:00:00Z,30.4367,-88.0117,1029.0,1111122 
DISL,ioos:station:DISL:MBLA:1,2015-12-05T06:30:00Z,30.4367,-88.0117,1029.0,1111122 
DISL,ioos:station:DISL:MBLA:1,2015-12-05T07:00:00Z,30.4367,-88.0117,1029.0,1111122 
DISL,ioos:station:DISL:MBLA:1,2015-12-05T07:30:00Z,30.4367,-88.0117,1029.0,1111122 
DISL,ioos:station:DISL:MBLA:1,2015-12-05T08:00:00Z,30.4367,-88.0117,1030.0,1111122 
DISL,ioos:station:DISL:MBLA:1,2015-12-05T08:30:00Z,30.4367,-88.0117,1029.0,1111122 
DISL,ioos:station:DISL:MBLA:1,2015-12-05T09:00:00Z,30.4367,-88.0117,1030.0,1111122 
DISL,ioos:station:DISL:MBLA:1,2015-12-05T09:30:00Z,30.4367,-88.0117,1029.0,1111122 
DISL,ioos:station:DISL:MBLA:1,2015-12-05T10:00:00Z,30.4367,-88.0117,1029.0,1111122 
DISL,ioos:station:DISL:MBLA:1,2015-12-05T10:30:00Z,30.4367,-88.0117,1029.0,1111122 
DISL,ioos:station:DISL:MBLA:1,2015-12-05T11:00:00Z,30.4367,-88.0117,1029.0,1111122 
DISL,ioos:station:DISL:MBLA:1,2015-12-05T11:30:00Z,30.4367,-88.0117,1030.0,1111122 
DISL,ioos:station:DISL:MBLA:1,2015-12-05T12:00:00Z,30.4367,-88.0117,1030.0,1111122 
DISL,ioos:station:DISL:MBLA:1,2015-12-05T12:30:00Z,30.4367,-88.0117,1030.0,1111122 
DISL,ioos:station:DISL:MBLA:1,2015-12-05T13:00:00Z,30.4367,-88.0117,1031.0,1111122 
DISL,ioos:station:DISL:MBLA:1,2015-12-05T13:30:00Z,30.4367,-88.0117,1031.0,1111122 
DISL,ioos:station:DISL:MBLA:1,2015-12-05T14:00:00Z,30.4367,-88.0117,1031.0,1111122 
DISL,ioos:station:DISL:MBLA:1,2015-12-05T14:30:00Z,30.4367,-88.0117,1032.0,1111122 
DISL,ioos:station:DISL:MBLA:1,2015-12-05T15:00:00Z,30.4367,-88.0117,1032.0,1111122 
DISL,ioos:station:DISL:MBLA:1,2015-12-05T15:30:00Z,30.4367,-88.0117,1032.0,1111122 
DISL,ioos:station:DISL:MBLA:1,2015-12-05T16:00:00Z,30.4367,-88.0117,1032.0,1111122 
DISL,ioos:station:DISL:MBLA:1,2015-12-05T16:30:00Z,30.4367,-88.0117,1031.0,1111122 
DISL,ioos:station:DISL:MBLA:1,2015-12-05T17:00:00Z,30.4367,-88.0117,1031.0,1111122 
DISL,ioos:station:DISL:MBLA:1,2015-12-05T17:30:00Z,30.4367,-88.0117,1029.0,1111122 
DISL,ioos:station:DISL:MBLA:1,2015-12-05T18:00:00Z,30.4367,-88.0117,1030.0,1111122 
DISL,ioos:station:DISL:MBLA:1,2015-12-05T18:30:00Z,30.4367,-88.0117,1029.0,1111122 
DISL,ioos:station:DISL:MBLA:1,2015-12-05T19:00:00Z,30.4367,-88.0117,1028.0,1111122 
DISL,ioos:station:DISL:MBLA:1,2015-12-05T19:30:00Z,30.4367,-88.0117,1028.0,1111122 
DISL,ioos:station:DISL:MBLA:1,2015-12-05T20:00:00Z,30.4367,-88.0117,1028.0,1111122 
DISL,ioos:station:DISL:MBLA:1,2015-12-05T20:30:00Z,30.4367,-88.0117,1028.0,1111122 
DISL,ioos:station:DISL:MBLA:1,2015-12-05T21:00:00Z,30.4367,-88.0117,1028.0,1111122 
DISL,ioos:station:DISL:MBLA:1,2015-12-05T21:30:00Z,30.4367,-88.0117,1028.0,1111122 
DISL,ioos:station:DISL:MBLA:1,2015-12-05T22:00:00Z,30.4367,-88.0117,1028.0,1111122 
DISL,ioos:station:DISL:MBLA:1,2015-12-05T22:30:00Z,30.4367,-88.0117,1028.0,1111122 
DISL,ioos:station:DISL:MBLA:1,2015-12-05T23:00:00Z,30.4367,-88.0117,1028.0,1111122 
DISL,ioos:station:DISL:MBLA:1,2015-12-05T23:30:00Z,30.4367,-88.0117,1028.0,1111122 
DISL,ioos:station:DISL:MBLA:1,2015-12-06T00:00:00Z,30.4367,-88.0117,1029.0,1111122 
DISL,ioos:station:DISL:MBLA:1,2015-12-06T00:30:00Z,30.4367,-88.0117,1029.0,1111122 
DISL,ioos:station:DISL:MBLA:1,2015-12-06T01:00:00Z,30.4367,-88.0117,1030.0,1111122 
DISL,ioos:station:DISL:MBLA:1,2015-12-06T01:30:00Z,30.4367,-88.0117,1029.0,1111122 
DISL,ioos:station:DISL:MBLA:1,2015-12-06T02:00:00Z,30.4367,-88.0117,1029.0,1111122 
DISL,ioos:station:DISL:MBLA:1,2015-12-06T02:30:00Z,30.4367,-88.0117,1030.0,1111122 
DISL,ioos:station:DISL:MBLA:1,2015-12-06T03:00:00Z,30.4367,-88.0117,1030.0,1111122 
DISL,ioos:station:DISL:MBLA:1,2015-12-06T03:30:00Z,30.4367,-88.0117,1030.0,1111122 
DISL,ioos:station:DISL:MBLA:1,2015-12-06T04:00:00Z,30.4367,-88.0117,1030.0,1111122 
DISL,ioos:station:DISL:MBLA:1,2015-12-06T04:30:00Z,30.4367,-88.0117,1030.0,1111122 
DISL,ioos:station:DISL:MBLA:1,2015-12-06T05:00:00Z,30.4367,-88.0117,1029.0,1111122 
DISL,ioos:station:DISL:MBLA:1,2015-12-06T05:30:00Z,30.4367,-88.0117,1029.0,1111122 
DISL,ioos:station:DISL:MBLA:1,2015-12-06T06:00:00Z,30.4367,-88.0117,1029.0,1111122 
DISL,ioos:station:DISL:MBLA:1,2015-12-06T06:30:00Z,30.4367,-88.0117,1029.0,1111122 
DISL,ioos:station:DISL:MBLA:1,2015-12-06T07:00:00Z,30.4367,-88.0117,1029.0,1111122 
DISL,ioos:station:DISL:MBLA:1,2015-12-06T07:30:00Z,30.4367,-88.0117,1029.0,1111122 
DISL,ioos:station:DISL:MBLA:1,2015-12-06T08:00:00Z,30.4367,-88.0117,1029.0,1111122 
DISL,ioos:station:DISL:MBLA:1,2015-12-06T08:30:00Z,30.4367,-88.0117,1029.0,1111122 
DISL,ioos:station:DISL:MBLA:1,2015-12-06T09:00:00Z,30.4367,-88.0117,1029.0,1111122 
DISL,ioos:station:DISL:MBLA:1,2015-12-06T09:30:00Z,30.4367,-88.0117,1028.0,1111122 
DISL,ioos:station:DISL:MBLA:1,2015-12-06T10:00:00Z,30.4367,-88.0117,1028.0,1111122 
DISL,ioos:station:DISL:MBLA:1,2015-12-06T10:30:00Z,30.4367,-88.0117,1028.0,1111122 
DISL,ioos:station:DISL:MBLA:1,2015-12-06T11:00:00Z,30.4367,-88.0117,1029.0,1111122 
DISL,ioos:station:DISL:MBLA:1,2015-12-06T11:30:00Z,30.4367,-88.0117,1029.0,1111122 
DISL,ioos:station:DISL:MBLA:1,2015-12-06T12:00:00Z,30.4367,-88.0117,1029.0,1111122 
DISL,ioos:station:DISL:MBLA:1,2015-12-06T12:30:00Z,30.4367,-88.0117,1028.0,1111122 
DISL,ioos:station:DISL:MBLA:1,2015-12-06T13:00:00Z,30.4367,-88.0117,1029.0,1111122 
DISL,ioos:station:DISL:MBLA:1,2015-12-06T13:30:00Z,30.4367,-88.0117,1029.0,1111122 
DISL,ioos:station:DISL:MBLA:1,2015-12-06T14:00:00Z,30.4367,-88.0117,1029.0,1111122 
DISL,ioos:station:DISL:MBLA:1,2015-12-06T14:30:00Z,30.4367,-88.0117,1029.0,1111122 
DISL,ioos:station:DISL:MBLA:1,2015-12-06T15:00:00Z,30.4367,-88.0117,1029.0,1111122 
DISL,ioos:station:DISL:MBLA:1,2015-12-06T15:30:00Z,30.4367,-88.0117,1030.0,1111122 
DISL,ioos:station:DISL:MBLA:1,2015-12-06T16:00:00Z,30.4367,-88.0117,1029.0,1111122 
DISL,ioos:station:DISL:MBLA:1,2015-12-06T16:30:00Z,30.4367,-88.0117,1029.0,1111122 
DISL,ioos:station:DISL:MBLA:1,2015-12-06T17:00:00Z,30.4367,-88.0117,1028.0,1111122 
DISL,ioos:station:DISL:MBLA:1,2015-12-06T17:30:00Z,30.4367,-88.0117,1028.0,1111122 
DISL,ioos:station:DISL:MBLA:1,2015-12-06T18:00:00Z,30.4367,-88.0117,1027.0,1111122 
DISL,ioos:station:DISL:MBLA:1,2015-12-06T18:30:00Z,30.4367,-88.0117,1027.0,1111122 
DISL,ioos:station:DISL:MBLA:1,2015-12-06T19:00:00Z,30.4367,-88.0117,1026.0,1111122 
DISL,ioos:station:DISL:MBLA:1,2015-12-06T19:30:00Z,30.4367,-88.0117,1026.0,1111122 
DISL,ioos:station:DISL:MBLA:1,2015-12-06T20:00:00Z,30.4367,-88.0117,1025.0,1111122 
DISL,ioos:station:DISL:MBLA:1,2015-12-06T20:30:00Z,30.4367,-88.0117,1025.0,1111122 
DISL,ioos:station:DISL:MBLA:1,2015-12-06T21:00:00Z,30.4367,-88.0117,1024.0,1111122 
DISL,ioos:station:DISL:MBLA:1,2015-12-06T21:30:00Z,30.4367,-88.0117,1024.0,1111122 
DISL,ioos:station:DISL:MBLA:1,2015-12-06T22:00:00Z,30.4367,-88.0117,1024.0,1111122 
DISL,ioos:station:DISL:MBLA:1,2015-12-06T22:30:00Z,30.4367,-88.0117,1024.0,1111122 
DISL,ioos:station:DISL:MBLA:1,2015-12-06T23:00:00Z,30.4367,-88.0117,1024.0,1111122 
DISL,ioos:station:DISL:MBLA:1,2015-12-06T23:30:00Z,30.4367,-88.0117,1024.0,1111122 
DISL,ioos:station:DISL:MBLA:1,2015-12-07T00:00:00Z,30.4367,-88.0117,1025.0,1111122 
DISL,ioos:station:DISL:MBLA:1,2015-12-07T00:30:00Z,30.4367,-88.0117,1024.0,1111122 
DISL,ioos:station:DISL:MBLA:1,2015-12-07T01:00:00Z,30.4367,-88.0117,1025.0,1111122 
DISL,ioos:station:DISL:MBLA:1,2015-12-07T01:30:00Z,30.4367,-88.0117,1025.0,1111122 
DISL,ioos:station:DISL:MBLA:1,2015-12-07T02:00:00Z,30.4367,-88.0117,1024.0,1111122 
DISL,ioos:station:DISL:MBLA:1,2015-12-07T02:30:00Z,30.4367,-88.0117,1025.0,1111122 
DISL,ioos:station:DISL:MBLA:1,2015-12-07T03:00:00Z,30.4367,-88.0117,1025.0,1111122 
DISL,ioos:station:DISL:MBLA:1,2015-12-07T03:30:00Z,30.4367,-88.0117,1025.0,1111122 
DISL,ioos:station:DISL:MBLA:1,2015-12-07T04:00:00Z,30.4367,-88.0117,1025.0,1111122 
DISL,ioos:station:DISL:MBLA:1,2015-12-07T04:30:00Z,30.4367,-88.0117,1025.0,1111122 
DISL,ioos:station:DISL:MBLA:1,2015-12-07T05:00:00Z,30.4367,-88.0117,1024.0,1111122 
DISL,ioos:station:DISL:MBLA:1,2015-12-07T05:30:00Z,30.4367,-88.0117,1024.0,1111122 
DISL,ioos:station:DISL:MBLA:1,2015-12-07T06:00:00Z,30.4367,-88.0117,1024.0,1111122 
DISL,ioos:station:DISL:MBLA:1,2015-12-07T06:30:00Z,30.4367,-88.0117,1024.0,1111122 
DISL,ioos:station:DISL:MBLA:1,2015-12-07T07:00:00Z,30.4367,-88.0117,1024.0,1111122 
DISL,ioos:station:DISL:MBLA:1,2015-12-07T07:30:00Z,30.4367,-88.0117,1024.0,1111122 
DISL,ioos:station:DISL:MBLA:1,2015-12-07T08:00:00Z,30.4367,-88.0117,1023.0,1111122 
DISL,ioos:station:DISL:MBLA:1,2015-12-07T08:30:00Z,30.4367,-88.0117,1023.0,1111122 
DISL,ioos:station:DISL:MBLA:1,2015-12-07T09:00:00Z,30.4367,-88.0117,1023.0,1111122 
DISL,ioos:station:DISL:MBLA:1,2015-12-07T09:30:00Z,30.4367,-88.0117,1023.0,1111122 
DISL,ioos:station:DISL:MBLA:1,2015-12-07T10:00:00Z,30.4367,-88.0117,1023.0,1111122 
DISL,ioos:station:DISL:MBLA:1,2015-12-07T10:30:00Z,30.4367,-88.0117,1023.0,1111122 
DISL,ioos:station:DISL:MBLA:1,2015-12-07T11:00:00Z,30.4367,-88.0117,1023.0,1111122 
DISL,ioos:station:DISL:MBLA:1,2015-12-07T11:30:00Z,30.4367,-88.0117,1023.0,1111122 
DISL,ioos:station:DISL:MBLA:1,2015-12-07T12:00:00Z,30.4367,-88.0117,1023.0,1111122 
DISL,ioos:station:DISL:MBLA:1,2015-12-07T12:30:00Z,30.4367,-88.0117,1023.0,1111122 
DISL,ioos:station:DISL:MBLA:1,2015-12-07T13:00:00Z,30.4367,-88.0117,1024.0,1111122 
DISL,ioos:station:DISL:MBLA:1,2015-12-07T13:30:00Z,30.4367,-88.0117,1024.0,1111122 
DISL,ioos:station:DISL:MBLA:1,2015-12-07T14:00:00Z,30.4367,-88.0117,1024.0,1111122 
DISL,ioos:station:DISL:MBLA:1,2015-12-07T14:30:00Z,30.4367,-88.0117,1024.0,1111122 
DISL,ioos:station:DISL:MBLA:1,2015-12-07T15:00:00Z,30.4367,-88.0117,1024.0,1111122 
DISL,ioos:station:DISL:MBLA:1,2015-12-07T15:30:00Z,30.4367,-88.0117,1025.0,1111122 
DISL,ioos:station:DISL:MBLA:1,2015-12-07T16:00:00Z,30.4367,-88.0117,1024.0,1111122 
DISL,ioos:station:DISL:MBLA:1,2015-12-07T16:30:00Z,30.4367,-88.0117,1024.0,1111122 
DISL,ioos:station:DISL:MBLA:1,2015-12-07T17:00:00Z,30.4367,-88.0117,1024.0,1111122 
DISL,ioos:station:DISL:MBLA:1,2015-12-07T17:30:00Z,30.4367,-88.0117,1023.0,1111122 
DISL,ioos:station:DISL:MBLA:1,2015-12-07T18:00:00Z,30.4367,-88.0117,1023.0,1111122 
DISL,ioos:station:DISL:MBLA:1,2015-12-07T18:30:00Z,30.4367,-88.0117,1022.0,1111122 
DISL,ioos:station:DISL:MBLA:1,2015-12-07T19:00:00Z,30.4367,-88.0117,1021.0,1111122 
DISL,ioos:station:DISL:MBLA:1,2015-12-07T19:30:00Z,30.4367,-88.0117,1021.0,1111122 
DISL,ioos:station:DISL:MBLA:1,2015-12-07T20:00:00Z,30.4367,-88.0117,1021.0,1111122 
DISL,ioos:station:DISL:MBLA:1,2015-12-07T20:30:00Z,30.4367,-88.0117,1020.0,1111122 
DISL,ioos:station:DISL:MBLA:1,2015-12-07T21:00:00Z,30.4367,-88.0117,1020.0,1111122 
DISL,ioos:station:DISL:MBLA:1,2015-12-07T21:30:00Z,30.4367,-88.0117,1020.0,1111122 
DISL,ioos:station:DISL:MBLA:1,2015-12-07T22:00:00Z,30.4367,-88.0117,1020.0,1111122 
DISL,ioos:station:DISL:MBLA:1,2015-12-07T22:30:00Z,30.4367,-88.0117,1020.0,1111122 
DISL,ioos:station:DISL:MBLA:1,2015-12-07T23:00:00Z,30.4367,-88.0117,1021.0,1111122 
DISL,ioos:station:DISL:MBLA:1,2015-12-07T23:30:00Z,30.4367,-88.0117,1021.0,1111122 
DISL,ioos:station:DISL:MBLA:1,2015-12-08T00:00:00Z,30.4367,-88.0117,1021.0,1111122 
DISL,ioos:station:DISL:MBLA:1,2015-12-08T00:30:00Z,30.4367,-88.0117,1021.0,1111122 
DISL,ioos:station:DISL:MBLA:1,2015-12-08T01:00:00Z,30.4367,-88.0117,1021.0,1111122 
DISL,ioos:station:DISL:MBLA:1,2015-12-08T01:30:00Z,30.4367,-88.0117,1021.0,1111122 
DISL,ioos:station:DISL:MBLA:1,2015-12-08T02:00:00Z,30.4367,-88.0117,1021.0,1111122 
DISL,ioos:station:DISL:MBLA:1,2015-12-08T02:30:00Z,30.4367,-88.0117,1021.0,1111122 
DISL,ioos:station:DISL:MBLA:1,2015-12-08T03:00:00Z,30.4367,-88.0117,1021.0,1111122 
DISL,ioos:station:DISL:MBLA:1,2015-12-08T03:30:00Z,30.4367,-88.0117,1021.0,1111122 
DISL,ioos:station:DISL:MBLA:1,2015-12-08T04:00:00Z,30.4367,-88.0117,1021.0,1111122 
DISL,ioos:station:DISL:MBLA:1,2015-12-08T04:30:00Z,30.4367,-88.0117,1021.0,1111122 
DISL,ioos:station:DISL:MBLA:1,2015-12-08T05:00:00Z,30.4367,-88.0117,1021.0,1111122 
DISL,ioos:station:DISL:MBLA:1,2015-12-08T05:30:00Z,30.4367,-88.0117,1020.0,1111122 
DISL,ioos:station:DISL:MBLA:1,2015-12-08T06:00:00Z,30.4367,-88.0117,1020.0,1111122 
DISL,ioos:station:DISL:MBLA:1,2015-12-08T06:30:00Z,30.4367,-88.0117,1020.0,1111122 
DISL,ioos:station:DISL:MBLA:1,2015-12-08T07:00:00Z,30.4367,-88.0117,1020.0,1111122 
DISL,ioos:station:DISL:MBLA:1,2015-12-08T07:30:00Z,30.4367,-88.0117,1020.0,1111122 
DISL,ioos:station:DISL:MBLA:1,2015-12-08T08:00:00Z,30.4367,-88.0117,1020.0,1111122 
DISL,ioos:station:DISL:MBLA:1,2015-12-08T08:30:00Z,30.4367,-88.0117,1020.0,1111122 
DISL,ioos:station:DISL:MBLA:1,2015-12-08T09:00:00Z,30.4367,-88.0117,1019.0,1111122 
DISL,ioos:station:DISL:MBLA:1,2015-12-08T09:30:00Z,30.4367,-88.0117,1020.0,1111122 
DISL,ioos:station:DISL:MBLA:1,2015-12-08T10:00:00Z,30.4367,-88.0117,1020.0,1111122 
DISL,ioos:station:DISL:MBLA:1,2015-12-08T10:30:00Z,30.4367,-88.0117,1020.0,1111122 
DISL,ioos:station:DISL:MBLA:1,2015-12-08T11:00:00Z,30.4367,-88.0117,1020.0,1111122 
DISL,ioos:station:DISL:MBLA:1,2015-12-08T11:30:00Z,30.4367,-88.0117,1020.0,1111122 
DISL,ioos:station:DISL:MBLA:1,2015-12-08T12:00:00Z,30.4367,-88.0117,1020.0,1111122 
DISL,ioos:station:DISL:MBLA:1,2015-12-08T12:30:00Z,30.4367,-88.0117,1021.0,1111122 
DISL,ioos:station:DISL:MBLA:1,2015-12-08T13:00:00Z,30.4367,-88.0117,1021.0,1111122 
DISL,ioos:station:DISL:MBLA:1,2015-12-08T13:30:00Z,30.4367,-88.0117,1021.0,1111122 
DISL,ioos:station:DISL:MBLA:1,2015-12-08T14:00:00Z,30.4367,-88.0117,1022.0,1111122 
DISL,ioos:station:DISL:MBLA:1,2015-12-08T14:30:00Z,30.4367,-88.0117,1021.0,1111122 
DISL,ioos:station:DISL:MBLA:1,2015-12-08T15:00:00Z,30.4367,-88.0117,1022.0,1111122 
DISL,ioos:station:DISL:MBLA:1,2015-12-08T15:30:00Z,30.4367,-88.0117,1021.0,1111122 
DISL,ioos:station:DISL:MBLA:1,2015-12-08T16:00:00Z,30.4367,-88.0117,1022.0,1111122 
DISL,ioos:station:DISL:MBLA:1,2015-12-08T16:30:00Z,30.4367,-88.0117,1021.0,1111122 
DISL,ioos:station:DISL:MBLA:1,2015-12-08T17:00:00Z,30.4367,-88.0117,1021.0,1111122 
DISL,ioos:station:DISL:MBLA:1,2015-12-08T17:30:00Z,30.4367,-88.0117,1020.0,1111122 
DISL,ioos:station:DISL:MBLA:1,2015-12-08T18:00:00Z,30.4367,-88.0117,1020.0,1111122 
DISL,ioos:station:DISL:MBLA:1,2015-12-08T18:30:00Z,30.4367,-88.0117,1020.0,1111122 
DISL,ioos:station:DISL:MBLA:1,2015-12-08T19:00:00Z,30.4367,-88.0117,1019.0,1111122 
DISL,ioos:station:DISL:MBLA:1,2015-12-08T19:30:00Z,30.4367,-88.0117,1019.0,1111122 
DISL,ioos:station:DISL:MBLA:1,2015-12-08T20:00:00Z,30.4367,-88.0117,1018.0,1111122 
DISL,ioos:station:DISL:MBLA:1,2015-12-08T20:30:00Z,30.4367,-88.0117,1018.0,1111122 
DISL,ioos:station:DISL:MBLA:1,2015-12-08T21:00:00Z,30.4367,-88.0117,1017.0,1111122 
DISL,ioos:station:DISL:MBLA:1,2015-12-08T21:30:00Z,30.4367,-88.0117,1018.0,1111122 
DISL,ioos:station:DISL:MBLA:1,2015-12-08T22:00:00Z,30.4367,-88.0117,1018.0,1111122 
DISL,ioos:station:DISL:MBLA:1,2015-12-08T22:30:00Z,30.4367,-88.0117,1018.0,1111122 
DISL,ioos:station:DISL:MBLA:1,2015-12-08T23:00:00Z,30.4367,-88.0117,1018.0,1111122 
DISL,ioos:station:DISL:MBLA:1,2015-12-08T23:30:00Z,30.4367,-88.0117,1018.0,1111122 
DISL,ioos:station:DISL:MBLA:1,2015-12-09T00:00:00Z,30.4367,-88.0117,1017.0,1111122 
DISL,ioos:station:DISL:MBLA:1,2015-12-09T00:30:00Z,30.4367,-88.0117,1018.0,1111122 
DISL,ioos:station:DISL:MBLA:1,2015-12-09T01:00:00Z,30.4367,-88.0117,1018.0,1111122 
DISL,ioos:station:DISL:MBLA:1,2015-12-09T01:30:00Z,30.4367,-88.0117,1018.0,1111122 
DISL,ioos:station:DISL:MBLA:1,2015-12-09T02:00:00Z,30.4367,-88.0117,1018.0,1111122 
DISL,ioos:station:DISL:MBLA:1,2015-12-09T02:30:00Z,30.4367,-88.0117,1018.0,1111122 
DISL,ioos:station:DISL:MBLA:1,2015-12-09T03:00:00Z,30.4367,-88.0117,1018.0,1111122 
DISL,ioos:station:DISL:MBLA:1,2015-12-09T03:30:00Z,30.4367,-88.0117,1018.0,1111122 
DISL,ioos:station:DISL:MBLA:1,2015-12-09T04:00:00Z,30.4367,-88.0117,1018.0,1111122 
DISL,ioos:station:DISL:MBLA:1,2015-12-09T04:30:00Z,30.4367,-88.0117,1018.0,1111122 
DISL,ioos:station:DISL:MBLA:1,2015-12-09T05:00:00Z,30.4367,-88.0117,1018.0,1111122 
DISL,ioos:station:DISL:MBLA:1,2015-12-09T05:30:00Z,30.4367,-88.0117,1018.0,1111122 
DISL,ioos:station:DISL:MBLA:1,2015-12-09T06:00:00Z,30.4367,-88.0117,1018.0,1111122 
DISL,ioos:station:DISL:MBLA:1,2015-12-09T06:30:00Z,30.4367,-88.0117,1017.0,1111122 
DISL,ioos:station:DISL:MBLA:1,2015-12-09T07:00:00Z,30.4367,-88.0117,1017.0,1111122 
DISL,ioos:station:DISL:MBLA:1,2015-12-09T07:30:00Z,30.4367,-88.0117,1017.0,1111122 
DISL,ioos:station:DISL:MBLA:1,2015-12-09T08:00:00Z,30.4367,-88.0117,1017.0,1111122 
DISL,ioos:station:DISL:MBLA:1,2015-12-09T08:30:00Z,30.4367,-88.0117,1017.0,1111122 
DISL,ioos:station:DISL:MBLA:1,2015-12-09T09:00:00Z,30.4367,-88.0117,1017.0,1111122 
DISL,ioos:station:DISL:MBLA:1,2015-12-09T09:30:00Z,30.4367,-88.0117,1017.0,1111122 
DISL,ioos:station:DISL:MBLA:1,2015-12-09T10:00:00Z,30.4367,-88.0117,1016.0,1111122 
DISL,ioos:station:DISL:MBLA:1,2015-12-09T10:30:00Z,30.4367,-88.0117,1016.0,1111122 
DISL,ioos:station:DISL:MBLA:1,2015-12-09T11:00:00Z,30.4367,-88.0117,1016.0,1111122 
DISL,ioos:station:DISL:MBLA:1,2015-12-09T11:30:00Z,30.4367,-88.0117,1017.0,1111122 
DISL,ioos:station:DISL:MBLA:1,2015-12-09T12:00:00Z,30.4367,-88.0117,1017.0,1111122 
DISL,ioos:station:DISL:MBLA:1,2015-12-09T12:30:00Z,30.4367,-88.0117,1017.0,1111122 
DISL,ioos:station:DISL:MBLA:1,2015-12-09T13:00:00Z,30.4367,-88.0117,1018.0,1111122 
DISL,ioos:station:DISL:MBLA:1,2015-12-09T13:30:00Z,30.4367,-88.0117,1019.0,1111122 
DISL,ioos:station:DISL:MBLA:1,2015-12-09T14:00:00Z,30.4367,-88.0117,1018.0,1111122 
DISL,ioos:station:DISL:MBLA:1,2015-12-09T14:30:00Z,30.4367,-88.0117,1019.0,1111122 
DISL,ioos:station:DISL:MBLA:1,2015-12-09T15:00:00Z,30.4367,-88.0117,1018.0,1111122 
DISL,ioos:station:DISL:MBLA:1,2015-12-09T15:30:00Z,30.4367,-88.0117,1019.0,1111122 
DISL,ioos:station:DISL:MBLA:1,2015-12-09T16:00:00Z,30.4367,-88.0117,1019.0,1111122 
DISL,ioos:station:DISL:MBLA:1,2015-12-09T16:30:00Z,30.4367,-88.0117,1018.0,1111122 
DISL,ioos:station:DISL:MBLA:1,2015-12-09T17:00:00Z,30.4367,-88.0117,1018.0,1111122 
DISL,ioos:station:DISL:MBLA:1,2015-12-09T17:30:00Z,30.4367,-88.0117,1017.0,1111122 
DISL,ioos:station:DISL:MBLA:1,2015-12-09T18:00:00Z,30.4367,-88.0117,1016.0,1111122 
DISL,ioos:station:DISL:MBLA:1,2015-12-09T18:30:00Z,30.4367,-88.0117,1017.0,1111122 
DISL,ioos:station:DISL:MBLA:1,2015-12-09T19:00:00Z,30.4367,-88.0117,1015.0,1111122 
DISL,ioos:station:DISL:MBLA:1,2015-12-09T19:30:00Z,30.4367,-88.0117,1016.0,1111122 
DISL,ioos:station:DISL:MBLA:1,2015-12-09T20:00:00Z,30.4367,-88.0117,1015.0,1111122 
DISL,ioos:station:DISL:MBLA:1,2015-12-09T20:30:00Z,30.4367,-88.0117,1015.0,1111122 
DISL,ioos:station:DISL:MBLA:1,2015-12-09T21:00:00Z,30.4367,-88.0117,1015.0,1111122 
DISL,ioos:station:DISL:MBLA:1,2015-12-09T21:30:00Z,30.4367,-88.0117,1015.0,1111122 
DISL,ioos:station:DISL:MBLA:1,2015-12-09T22:00:00Z,30.4367,-88.0117,1015.0,1111122 
DISL,ioos:station:DISL:MBLA:1,2015-12-09T22:30:00Z,30.4367,-88.0117,1015.0,1111122 
DISL,ioos:station:DISL:MBLA:1,2015-12-09T23:00:00Z,30.4367,-88.0117,1015.0,1111122 
DISL,ioos:station:DISL:MBLA:1,2015-12-09T23:30:00Z,30.4367,-88.0117,1015.0,1111122 
DISL,ioos:station:DISL:MBLA:1,2015-12-10T00:00:00Z,30.4367,-88.0117,1015.0,1111122 
DISL,ioos:station:DISL:MBLA:1,2015-12-10T00:30:00Z,30.4367,-88.0117,1015.0,1111122 
DISL,ioos:station:DISL:MBLA:1,2015-12-10T01:00:00Z,30.4367,-88.0117,1016.0,1111122 